TimePDT,TemperatureF,Dew PointF,Humidity,Sea Level PressureIn,VisibilityMPH,Wind Direction,Wind SpeedMPH,Gust SpeedMPH,PrecipitationIn,Events,Conditions,WindDirDegrees,DateUTC
12:50 AM,64.4,60.8,88,29.91,5.0,SSE,4.6,-,N/A,Fog,Patches of Fog,160,2013-08-19 07:50:00
12:53 AM,64.4,60.8,88,29.91,5.0,SSE,3.5,-,N/A,Fog,Patches of Fog,160,2013-08-19 07:53:00
1:53 AM,64.4,60.8,88,29.89,5.0,Calm,Calm,-,N/A,Fog,Patches of Fog,0,2013-08-19 08:53:00
2:47 AM,64.4,60.8,88,29.89,4.0,SSE,3.5,-,N/A,Fog,Patches of Fog,150,2013-08-19 09:47:00
2:53 AM,64.4,60.8,88,29.89,4.0,South,3.5,-,N/A,Fog,Patches of Fog,170,2013-08-19 09:53:00
3:53 AM,64.4,60.8,88,29.88,4.0,Calm,Calm,-,N/A,Fog,Patches of Fog,0,2013-08-19 10:53:00
4:53 AM,64.4,60.8,88,29.88,4.0,Calm,Calm,-,N/A,Fog,Patches of Fog,0,2013-08-19 11:53:00
5:53 AM,66.2,60.8,83,29.90,4.0,Calm,Calm,-,N/A,Fog,Patches of Fog,0,2013-08-19 12:53:00
6:53 AM,66.0,61.0,84,29.91,3.0,SE,3.5,-,N/A,Fog,Patches of Fog,130,2013-08-19 13:53:00
7:53 AM,66.9,62.1,84,29.93,3.0,SSE,3.5,-,N/A,Fog,Patches of Fog,160,2013-08-19 14:53:00
8:53 AM,66.2,62.6,88,29.94,4.0,Calm,Calm,-,N/A,Fog,Patches of Fog,0,2013-08-19 15:53:00
9:53 AM,66.2,60.8,83,29.95,4.0,West,6.9,-,N/A,Fog,Patches of Fog,260,2013-08-19 16:53:00
10:53 AM,69.1,62.1,78,29.96,4.0,SW,4.6,-,N/A,,Overcast,230,2013-08-19 17:53:00
11:34 AM,71.6,62.6,73,29.95,6.0,West,5.8,-,N/A,,Haze,270,2013-08-19 18:34:00
11:40 AM,71.6,62.6,73,29.95,6.0,West,5.8,-,N/A,,Haze,280,2013-08-19 18:40:00
11:53 AM,72.0,61.0,68,29.95,6.0,WNW,6.9,-,N/A,,Haze,290,2013-08-19 18:53:00
12:53 PM,72.0,61.0,68,29.94,7.0,WSW,9.2,-,N/A,,Scattered Clouds,250,2013-08-19 19:53:00
1:53 PM,71.1,61.0,70,29.93,8.0,West,10.4,19.6,N/A,,Scattered Clouds,280,2013-08-19 20:53:00
2:53 PM,70.0,61.0,73,29.91,10.0,West,11.5,17.3,N/A,,Scattered Clouds,280,2013-08-19 21:53:00
3:53 PM,70.0,61.0,73,29.88,10.0,WSW,12.7,-,N/A,,Scattered Clouds,250,2013-08-19 22:53:00
4:33 PM,69.8,60.8,73,29.88,10.0,West,12.7,-,N/A,,Mostly Cloudy,270,2013-08-19 23:33:00
4:53 PM,69.1,61.0,75,29.88,10.0,West,13.8,-,N/A,,Mostly Cloudy,260,2013-08-19 23:53:00
5:22 PM,68.0,60.8,78,29.88,10.0,West,13.8,-,N/A,,Mostly Cloudy,270,2013-08-20 00:22:00
5:53 PM,66.9,61.0,81,29.88,9.0,West,12.7,-,N/A,,Overcast,280,2013-08-20 00:53:00
6:53 PM,64.9,61.0,87,29.87,10.0,WSW,10.4,-,N/A,,Overcast,250,2013-08-20 01:53:00
7:53 PM,64.9,61.0,87,29.89,8.0,West,8.1,-,N/A,,Overcast,280,2013-08-20 02:53:00
8:53 PM,64.0,61.0,90,29.90,7.0,WSW,6.9,-,N/A,,Overcast,250,2013-08-20 03:53:00
9:53 PM,64.9,61.0,87,29.91,8.0,West,9.2,-,N/A,,Overcast,260,2013-08-20 04:53:00
10:53 PM,64.9,61.0,87,29.91,8.0,WSW,5.8,-,N/A,,Overcast,250,2013-08-20 05:53:00
11:53 PM,64.0,60.1,87,29.91,8.0,West,6.9,-,N/A,,Mostly Cloudy,260,2013-08-20 06:53:00